Location: Belfast
(54.5830°N, 5.9330°W)
Time: 14:10:08
(UTC+01:00)

ISS - Pass Details

Date: 24 May 2017
Orbit: 402 x 408 km, 51.6° (Epoch: 26 May)

Event Time Altitude Azimuth Distance (km) Brightness Sun altitude
Rises 00:53:37 0° 249° (WSW) 2,330 -0.1 -14.4°
Reaches altitude 10° 00:55:45 10° 242° (WSW) 1,469 -1.2 -14.5°
Maximum altitude 00:58:54 44° 169° (S) 575 -3.6 -14.5°
Drops below altitude 10° 01:02:03 10° 96° (E) 1,468 -1.1 -14.5°
Sets 01:04:11 0° 90° (E) 2,328 0.0 -14.6°
